Weather in Pereshchepyne

Ukraine / Dnipropetrovsk Region     49°00′51″N   35°21′54″E
temp.,
°C
wind,
m/s
gust,
m/s
humid.,
%
clouds,
%
prec.,
mm/h
press.,
hPa
HPBL,
m
22 january, sat
sat2223:00−5sw6128863 0.0 1009372
02:00−6sw5119240 0.0 1009298
05:00−6sw41094100 0.0 1009268
08:00−6sw5109598 0.0 1010297
11:00−4sw5890100 0.1 1011474
14:00−3sw578898 0.1 1012725
17:00−4ssw489569 0.1 1013239
20:00−6sw369685 0.2 1015111
23 january, sun
sun2323:00−9ssw229863 0.0 101620
02:00−10s229762 0.0 101711
05:00−11sse229761 0.0 101811
08:00−10e2297100 0.0 101928
11:00−5ene3589100 0.0 1020217
14:00−4ne4790100 0.0 1021383
17:00−6ne41093100 0.0 1023295
20:00−7nne51292100 0.0 1024336
24 january, mon
mon2423:00−7nne61390100 0.0 1024389
02:00−6nne81694100 0.9 1023595
05:00−6nne71595100 0.7 1022573
08:00−5ne61496100 2.8 1024579
11:00−3ne71295100 1.6 1024667
14:00−3ne699499 2.1 1024584
17:00−5ne5109495 0.1 1026402
20:00−6ne4896100 0.3 1026283
25 january, tue
tue2523:00−6nne4796100 0.2 1026272
02:00−6nne3696100 1.3 1025301
05:00−6nne3596100 0.9 1024240
08:00−6nne2396100 1.6 1024148
11:00−5ese019099 0.3 1024273
14:00−4wsw1290100 0.4 1023313
17:00−8wsw119788 0.1 102410
20:00−9ssw229898 0.1 102314
26 january, wed
wed2623:00−6sw2496100 0.4 1022169
02:00−7sw2496100 1.0 1022181
05:00−8sw2297100 0.4 102045
08:00−8sw2396100 0.8 1020116
11:00−7sw3491100 0.3 1020338
14:00−6sw2390100 0.5 1019421
17:00−9ssw119765 0.1 102010
20:00−11s119981 0.1 102010